JA86GR PHNL-PHTO

Flight info

Callsign JA86GR
Flight time 0h 53m
Altitude 19000
Route MKK5 MKK POHOU
Aircraft HDJT/L-SABDGRWY/H

Departure

Time 2026-04-22 19:13
Airport Daniel K. Inouye International Airport (PHNL)

Arrival

Time 2026-04-22 20:06
Airport Hilo International Airport (PHTO)
Time Latitude Longitude Altitude Speed Heading
2026-04-22 19:01 21.31283 -157.92444 10 ft 0 kts 324°
2026-04-22 19:07 21.31285 -157.92447 10 ft 2 kts 308°
2026-04-22 19:08 21.31285 -157.92455 10 ft 3 kts 242°
2026-04-22 19:08 21.31274 -157.92470 10 ft 0 kts 252°
2026-04-22 19:08 21.31281 -157.92487 10 ft 6 kts 309°
2026-04-22 19:08 21.31309 -157.92518 10 ft 6 kts 298°
2026-04-22 19:09 21.31301 -157.92551 10 ft 6 kts 234°
2026-04-22 19:09 21.31291 -157.92608 10 ft 10 kts 290°
2026-04-22 19:09 21.31318 -157.92636 11 ft 7 kts 322°
2026-04-22 19:09 21.31326 -157.92644 11 ft 0 kts 322°
2026-04-22 19:11 21.31330 -157.92646 12 ft 4 kts 321°
2026-04-22 19:11 21.31379 -157.92683 13 ft 12 kts 339°
2026-04-22 19:12 21.31432 -157.92659 12 ft 0 kts 54°
2026-04-22 19:12 21.31500 -157.92560 10 ft 51 kts 51°
2026-04-22 19:12 21.31873 -157.92033 12 ft 123 kts 53°
2026-04-22 19:13 21.32395 -157.91236 541 ft 145 kts 56°
2026-04-22 19:13 21.32806 -157.90144 1172 ft 172 kts 90°
2026-04-22 19:13 21.32340 -157.88924 2027 ft 193 kts 133°
2026-04-22 19:13 21.31106 -157.88223 2958 ft 210 kts 162°
2026-04-22 19:14 21.29655 -157.87839 3860 ft 221 kts 165°
2026-04-22 19:14 21.28157 -157.87438 4887 ft 226 kts 165°
2026-04-22 19:14 21.26613 -157.86977 5859 ft 232 kts 159°
2026-04-22 19:14 21.25302 -157.85951 6819 ft 236 kts 125°
2026-04-22 19:15 21.24675 -157.84350 7742 ft 239 kts 102°
2026-04-22 19:15 21.24351 -157.82571 8656 ft 245 kts 99°
2026-04-22 19:15 21.24060 -157.80812 9542 ft 250 kts 99°
2026-04-22 19:15 21.23776 -157.78943 10407 ft 255 kts 98°
2026-04-22 19:16 21.23495 -157.77058 11337 ft 254 kts 98°
2026-04-22 19:16 21.23196 -157.75204 12244 ft 254 kts 98°
2026-04-22 19:16 21.22891 -157.73324 13150 ft 255 kts 97°
2026-04-22 19:16 21.22592 -157.71435 14008 ft 258 kts 97°
2026-04-22 19:17 21.22296 -157.69549 14721 ft 261 kts 97°
2026-04-22 19:17 21.21984 -157.67603 15430 ft 265 kts 98°
2026-04-22 19:17 21.21670 -157.65640 15982 ft 278 kts 97°
2026-04-22 19:17 21.21335 -157.63477 16004 ft 308 kts 97°
2026-04-22 19:18 21.20959 -157.61112 16010 ft 334 kts 97°
2026-04-22 19:18 21.20546 -157.58576 16010 ft 355 kts 98°
2026-04-22 19:18 21.20117 -157.55903 16009 ft 369 kts 97°
2026-04-22 19:18 21.19703 -157.53294 16219 ft 346 kts 97°
2026-04-22 19:19 21.19303 -157.50833 17279 ft 321 kts 97°
2026-04-22 19:19 21.18948 -157.48629 18577 ft 297 kts 97°
2026-04-22 19:19 21.18601 -157.46416 18986 ft 307 kts 97°
2026-04-22 19:19 21.18242 -157.44141 18996 ft 328 kts 97°
2026-04-22 19:20 21.17838 -157.41655 19013 ft 345 kts 97°
2026-04-22 19:20 21.17416 -157.39056 19020 ft 360 kts 97°
2026-04-22 19:20 21.16990 -157.36388 19021 ft 370 kts 97°
2026-04-22 19:20 21.16549 -157.33654 19023 ft 370 kts 98°
2026-04-22 19:21 21.16110 -157.30963 19021 ft 369 kts 97°
2026-04-22 19:21 21.15673 -157.28239 19024 ft 369 kts 97°
2026-04-22 19:21 21.15242 -157.25553 19022 ft 370 kts 98°
2026-04-22 19:21 21.14799 -157.22832 19022 ft 369 kts 98°
2026-04-22 19:22 21.14365 -157.20151 19021 ft 369 kts 98°
2026-04-22 19:22 21.13779 -157.17457 19021 ft 371 kts 108°
2026-04-22 19:22 21.12685 -157.14972 19017 ft 373 kts 118°
2026-04-22 19:22 21.11225 -157.12648 19020 ft 374 kts 123°
2026-04-22 19:23 21.09752 -157.10334 19024 ft 375 kts 122°
2026-04-22 19:23 21.08343 -157.08026 19024 ft 374 kts 122°
2026-04-22 19:23 21.06896 -157.05706 19025 ft 374 kts 123°
2026-04-22 19:23 21.05413 -157.03395 19023 ft 374 kts 123°
2026-04-22 19:24 21.03969 -157.01105 19021 ft 374 kts 122°
2026-04-22 19:24 21.02520 -156.98771 19022 ft 374 kts 122°
2026-04-22 19:24 21.01079 -156.96487 19018 ft 374 kts 123°
2026-04-22 19:24 20.99605 -156.94169 19039 ft 374 kts 122°
2026-04-22 19:25 20.98167 -156.91878 19040 ft 374 kts 122°
2026-04-22 19:25 20.96710 -156.89557 19045 ft 374 kts 122°
2026-04-22 19:25 20.95246 -156.87247 19045 ft 374 kts 123°
2026-04-22 19:25 20.93796 -156.84952 19049 ft 374 kts 122°
2026-04-22 19:26 20.92341 -156.82638 19044 ft 374 kts 122°
2026-04-22 19:26 20.90880 -156.80327 19048 ft 374 kts 123°
2026-04-22 19:26 20.89435 -156.78047 19046 ft 374 kts 122°
2026-04-22 19:26 20.87979 -156.75736 19042 ft 374 kts 122°
2026-04-22 19:27 20.86508 -156.73411 19042 ft 375 kts 123°
2026-04-22 19:27 20.85060 -156.71129 19036 ft 375 kts 123°
2026-04-22 19:27 20.83595 -156.68809 19034 ft 374 kts 123°
2026-04-22 19:27 20.82158 -156.66537 19009 ft 374 kts 123°
2026-04-22 19:28 20.80710 -156.64257 19012 ft 374 kts 123°
2026-04-22 19:28 20.79267 -156.61977 19009 ft 374 kts 123°
2026-04-22 19:28 20.77805 -156.59665 19011 ft 374 kts 123°
2026-04-22 19:28 20.76353 -156.57383 19013 ft 374 kts 123°
2026-04-22 19:29 20.74882 -156.55067 19014 ft 374 kts 123°
2026-04-22 19:29 20.73435 -156.52782 19009 ft 374 kts 123°
2026-04-22 19:29 20.71981 -156.50495 19008 ft 359 kts 123°
2026-04-22 19:29 20.70628 -156.48370 18650 ft 340 kts 123°
2026-04-22 19:30 20.69729 -156.46951 17853 ft 341 kts 122°
2026-04-22 19:30 20.67978 -156.44194 16553 ft 333 kts 123°
2026-04-22 19:30 20.66684 -156.42164 15623 ft 327 kts 123°
2026-04-22 19:30 20.65373 -156.40232 14730 ft 321 kts 125°
2026-04-22 19:31 20.64059 -156.38319 13816 ft 317 kts 124°
2026-04-22 19:31 20.62749 -156.36376 13153 ft 329 kts 124°
2026-04-22 19:31 20.61437 -156.34446 13178 ft 315 kts 125°
2026-04-22 19:31 20.60130 -156.32541 12847 ft 323 kts 125°
2026-04-22 19:32 20.58813 -156.30616 12522 ft 315 kts 125°
2026-04-22 19:32 20.57546 -156.28756 12183 ft 309 kts 125°
2026-04-22 19:32 20.56322 -156.26958 11804 ft 288 kts 126°
2026-04-22 19:32 20.55186 -156.25298 11407 ft 273 kts 126°
2026-04-22 19:33 20.54086 -156.23688 11011 ft 263 kts 126°
2026-04-22 19:33 20.53030 -156.22141 10615 ft 259 kts 127°
2026-04-22 19:33 20.52002 -156.20635 10235 ft 257 kts 127°
2026-04-22 19:33 20.50948 -156.19094 9828 ft 255 kts 127°
2026-04-22 19:34 20.49939 -156.17563 9400 ft 254 kts 123°
2026-04-22 19:34 20.49060 -156.15927 9003 ft 253 kts 120°
2026-04-22 19:34 20.48219 -156.14279 8598 ft 251 kts 119°
2026-04-22 19:34 20.47398 -156.12668 8213 ft 247 kts 119°
2026-04-22 19:35 20.46584 -156.11082 7823 ft 245 kts 119°
2026-04-22 19:35 20.45786 -156.09540 7447 ft 242 kts 119°
2026-04-22 19:35 20.44971 -156.07972 7066 ft 239 kts 119°
2026-04-22 19:35 20.44184 -156.06465 6706 ft 237 kts 119°
2026-04-22 19:36 20.43389 -156.04958 6330 ft 234 kts 119°
2026-04-22 19:36 20.42597 -156.03464 5943 ft 232 kts 119°
2026-04-22 19:36 20.41801 -156.01966 5560 ft 230 kts 119°
2026-04-22 19:36 20.41006 -156.00483 5192 ft 228 kts 119°
2026-04-22 19:37 20.40228 -155.99034 4825 ft 226 kts 119°
2026-04-22 19:37 20.39446 -155.97579 4449 ft 224 kts 119°
2026-04-22 19:37 20.38673 -155.96134 4070 ft 222 kts 119°
2026-04-22 19:37 20.37930 -155.94751 3998 ft 217 kts 119°
2026-04-22 19:38 20.37169 -155.93331 4004 ft 220 kts 119°
2026-04-22 19:38 20.36410 -155.91924 4003 ft 222 kts 120°
2026-04-22 19:38 20.35650 -155.90515 4000 ft 222 kts 119°
2026-04-22 19:38 20.34886 -155.89073 4005 ft 222 kts 116°
2026-04-22 19:39 20.34296 -155.87571 4003 ft 222 kts 110°
2026-04-22 19:39 20.33747 -155.86028 4007 ft 221 kts 110°
2026-04-22 19:39 20.33208 -155.84509 4003 ft 222 kts 110°
2026-04-22 19:39 20.32668 -155.82960 4002 ft 222 kts 110°
2026-04-22 19:40 20.32135 -155.81430 4000 ft 222 kts 110°
2026-04-22 19:40 20.31594 -155.79883 4002 ft 222 kts 110°
2026-04-22 19:40 20.31056 -155.78331 4005 ft 222 kts 110°
2026-04-22 19:40 20.30525 -155.76800 4002 ft 222 kts 110°
2026-04-22 19:41 20.29989 -155.75247 4002 ft 222 kts 110°
2026-04-22 19:41 20.29463 -155.73720 4006 ft 222 kts 110°
2026-04-22 19:41 20.28926 -155.72164 4007 ft 222 kts 110°
2026-04-22 19:41 20.28391 -155.70612 4008 ft 223 kts 110°
2026-04-22 19:42 20.27861 -155.69080 4003 ft 222 kts 110°
2026-04-22 19:42 20.27325 -155.67532 4006 ft 222 kts 110°
2026-04-22 19:42 20.26794 -155.65997 4004 ft 222 kts 110°
2026-04-22 19:42 20.26256 -155.64446 4007 ft 223 kts 110°
2026-04-22 19:43 20.25182 -155.61331 4008 ft 223 kts 110°
2026-04-22 19:43 20.24652 -155.59796 4007 ft 224 kts 110°
2026-04-22 19:43 20.24115 -155.58238 4009 ft 223 kts 110°
2026-04-22 19:44 20.23582 -155.56699 4007 ft 223 kts 110°
2026-04-22 19:44 20.23037 -155.55132 4008 ft 224 kts 110°
2026-04-22 19:44 20.22502 -155.53592 4008 ft 224 kts 110°
2026-04-22 19:44 20.21962 -155.52035 4008 ft 223 kts 110°
2026-04-22 19:45 20.21421 -155.50476 4011 ft 224 kts 110°
2026-04-22 19:45 20.20887 -155.48939 4010 ft 224 kts 110°
2026-04-22 19:45 20.20346 -155.47380 4010 ft 224 kts 110°
2026-04-22 19:45 20.19806 -155.45822 4012 ft 224 kts 110°
2026-04-22 19:46 20.19264 -155.44263 4011 ft 224 kts 110°
2026-04-22 19:46 20.18729 -155.42728 4012 ft 223 kts 110°
2026-04-22 19:46 20.18185 -155.41168 4013 ft 224 kts 110°
2026-04-22 19:46 20.17652 -155.39629 4009 ft 223 kts 110°
2026-04-22 19:47 20.17108 -155.38069 4012 ft 224 kts 110°
2026-04-22 19:47 20.16565 -155.36511 4015 ft 224 kts 110°
2026-04-22 19:47 20.16205 -155.35479 4016 ft 223 kts 110°
2026-04-22 19:47 20.15487 -155.33417 4016 ft 224 kts 110°
2026-04-22 19:48 20.14950 -155.31876 4015 ft 223 kts 110°
2026-04-22 19:48 20.14404 -155.30316 4014 ft 224 kts 110°
2026-04-22 19:48 20.13869 -155.28778 4012 ft 224 kts 110°
2026-04-22 19:48 20.13325 -155.27224 4011 ft 224 kts 110°
2026-04-22 19:49 20.12780 -155.25671 4013 ft 224 kts 110°
2026-04-22 19:49 20.12234 -155.24113 4012 ft 224 kts 110°
2026-04-22 19:49 20.11870 -155.23078 4016 ft 224 kts 110°
2026-04-22 19:50 20.11340 -155.21574 4015 ft 224 kts 110°
2026-04-22 19:50 20.10799 -155.20038 4011 ft 224 kts 110°
2026-04-22 19:50 20.10251 -155.18481 4015 ft 224 kts 110°
2026-04-22 19:50 20.09702 -155.16921 4011 ft 224 kts 110°
2026-04-22 19:51 20.09158 -155.15382 4017 ft 224 kts 110°
2026-04-22 19:51 20.08610 -155.13826 4012 ft 224 kts 110°
2026-04-22 19:51 20.08066 -155.12288 4013 ft 224 kts 110°
2026-04-22 19:51 20.07526 -155.10758 4017 ft 223 kts 110°
2026-04-22 19:52 20.06986 -155.09233 4013 ft 224 kts 110°
2026-04-22 19:52 20.06442 -155.07692 4010 ft 224 kts 110°
2026-04-22 19:52 20.05892 -155.06138 4012 ft 223 kts 110°
2026-04-22 19:52 20.05346 -155.04602 4011 ft 223 kts 110°
2026-04-22 19:53 20.04795 -155.03049 4015 ft 223 kts 110°
2026-04-22 19:53 20.04241 -155.01493 4015 ft 224 kts 110°
2026-04-22 19:53 20.03874 -155.00465 4012 ft 224 kts 110°
2026-04-22 19:53 20.03141 -154.98408 4010 ft 223 kts 110°
2026-04-22 19:54 20.02596 -154.96879 4013 ft 224 kts 110°
2026-04-22 19:54 20.02055 -154.95356 4014 ft 223 kts 110°
2026-04-22 19:54 20.01414 -154.93872 4012 ft 224 kts 121°
2026-04-22 19:54 20.00481 -154.92542 4008 ft 224 kts 129°
2026-04-22 19:55 19.99502 -154.91275 4013 ft 224 kts 129°
2026-04-22 19:55 19.98507 -154.89994 4012 ft 224 kts 129°
2026-04-22 19:55 19.97510 -154.88711 4011 ft 224 kts 129°
2026-04-22 19:55 19.96512 -154.87423 4012 ft 224 kts 129°
2026-04-22 19:56 19.95523 -154.86159 4013 ft 225 kts 129°
2026-04-22 19:56 19.94516 -154.84878 4011 ft 225 kts 129°
2026-04-22 19:56 19.93511 -154.83600 4013 ft 225 kts 129°
2026-04-22 19:56 19.92516 -154.82336 4007 ft 225 kts 129°
2026-04-22 19:57 19.91510 -154.81055 4016 ft 225 kts 129°
2026-04-22 19:57 19.90515 -154.79792 4011 ft 225 kts 129°
2026-04-22 19:57 19.89505 -154.78506 4006 ft 225 kts 129°
2026-04-22 19:57 19.88499 -154.77232 4007 ft 225 kts 129°
2026-04-22 19:58 19.87502 -154.75972 4008 ft 225 kts 129°
2026-04-22 19:58 19.86491 -154.74698 4013 ft 225 kts 129°
2026-04-22 19:58 19.85362 -154.73541 3984 ft 225 kts 149°
2026-04-22 19:58 19.83872 -154.73149 4007 ft 228 kts 181°
2026-04-22 19:59 19.82323 -154.73351 3655 ft 223 kts 188°
2026-04-22 20:00 19.74417 -154.76333 2010 ft 224 kts 240°
2026-04-22 20:00 19.73382 -154.78225 2011 ft 223 kts 239°
2026-04-22 20:01 19.72854 -154.79173 2007 ft 224 kts 239°
2026-04-22 20:01 19.71807 -154.81070 2007 ft 224 kts 240°
2026-04-22 20:01 19.71425 -154.82088 2014 ft 225 kts 259°
2026-04-22 20:01 19.71576 -154.83724 2011 ft 223 kts 294°
2026-04-22 20:02 19.72517 -154.85017 2019 ft 223 kts 314°
2026-04-22 20:02 19.73265 -154.86433 2004 ft 225 kts 283°
2026-04-22 20:02 19.73216 -154.88069 2003 ft 214 kts 258°
2026-04-22 20:02 19.72839 -154.89582 2002 ft 213 kts 252°
2026-04-22 20:03 19.72417 -154.91012 1994 ft 199 kts 252°
2026-04-22 20:03 19.72041 -154.92452 2001 ft 203 kts 256°
2026-04-22 20:03 19.71858 -154.93940 1999 ft 202 kts 271°
2026-04-22 20:03 19.71966 -154.95444 1760 ft 210 kts 279°
2026-04-22 20:04 19.72222 -154.96982 1319 ft 210 kts 275°
2026-04-22 20:04 19.72162 -154.98460 924 ft 185 kts 265°
2026-04-22 20:04 19.72105 -154.99730 595 ft 158 kts 271°
2026-04-22 20:04 19.72129 -155.00785 326 ft 131 kts 271°
2026-04-22 20:05 19.72132 -155.01716 196 ft 123 kts 271°
2026-04-22 20:05 19.72127 -155.02626 103 ft 124 kts 270°
2026-04-22 20:05 19.72140 -155.03493 38 ft 106 kts 269°
2026-04-22 20:05 19.72132 -155.04176 35 ft 81 kts 268°
2026-04-22 20:06 19.72137 -155.04713 32 ft 66 kts 271°
2026-04-22 20:06 19.72141 -155.05158 35 ft 54 kts 277°
2026-04-22 20:06 19.72081 -155.05344 36 ft 5 kts 205°
2026-04-22 20:06 19.72030 -155.05361 34 ft 13 kts 168°
2026-04-22 20:07 19.71940 -155.05311 33 ft 14 kts 121°
2026-04-22 20:07 19.71921 -155.05282 32 ft 1 kts 240°
2026-04-22 20:07 19.71968 -155.05335 33 ft 19 kts 328°
2026-04-22 20:07 19.72013 -155.05395 34 ft 14 kts 276°
2026-04-22 20:08 19.72014 -155.05494 37 ft 13 kts 271°
2026-04-22 20:08 19.71947 -155.05612 37 ft 27 kts 223°
2026-04-22 20:08 19.71809 -155.05739 36 ft 25 kts 223°
2026-04-22 20:08 19.71688 -155.05840 35 ft 15 kts 184°
2026-04-22 20:09 19.71631 -155.05807 33 ft 11 kts 135°
2026-04-22 20:09 19.71588 -155.05745 32 ft 9 kts 95°
2026-04-22 20:09 19.71615 -155.05717 32 ft 5 kts 26°
2026-04-22 20:09 19.71647 -155.05672 32 ft 11 kts 67°
2026-04-22 20:10 19.71670 -155.05644 32 ft 0 kts 43°